Time,TemperatureF,DewpointF,PressureIn,WindDirection,WindDirectionDegrees,WindSpeedMPH,WindSpeedGustMPH,Humidity,HourlyPrecipIn,Conditions,Clouds,dailyrainin,SoftwareType,DateUTC
2013-01-15 00:00:00,15.7,11.5,30.40,WSW,242,7.0,11.0,83,0.00,,,0.00,VWS V14.01,2013-01-15 06:00:00,
2013-01-15 00:01:00,15.7,11.5,30.40,SW,221,4.0,6.0,83,0.00,,,0.00,VWS V14.01,2013-01-15 06:01:00,
2013-01-15 00:06:00,15.6,11.4,30.40,SSW,207,4.0,10.0,83,0.00,,,0.00,VWS V14.01,2013-01-15 06:06:00,
2013-01-15 00:11:00,15.5,11.3,30.40,SSE,158,5.0,10.0,83,0.00,,,0.00,VWS V14.01,2013-01-15 06:11:00,
2013-01-15 00:16:00,15.6,11.4,30.40,SSW,207,4.0,10.0,83,0.00,,,0.00,VWS V14.01,2013-01-15 06:16:00,
2013-01-15 00:21:00,15.6,11.4,30.40,South,187,4.0,10.0,83,0.00,,,0.00,VWS V14.01,2013-01-15 06:21:00,
2013-01-15 00:26:00,15.6,11.4,30.39,SSE,162,4.0,10.0,83,0.00,,,0.00,VWS V14.01,2013-01-15 06:26:00,
2013-01-15 00:30:00,15.8,11.6,30.39,SSW,211,5.0,10.0,83,0.00,,,0.00,VWS V14.01,2013-01-15 06:30:00,
2013-01-15 00:31:00,15.7,11.5,30.39,SW,225,2.0,6.0,83,0.00,,,0.00,VWS V14.01,2013-01-15 06:31:00,
2013-01-15 00:36:00,15.8,11.6,30.39,WSW,248,3.0,8.0,83,0.00,,,0.00,VWS V14.01,2013-01-15 06:36:00,
2013-01-15 00:41:00,15.8,11.3,30.39,SSW,207,4.0,8.0,82,0.00,,,0.00,VWS V14.01,2013-01-15 06:41:00,
2013-01-15 00:46:00,16.0,11.5,30.39,SSW,194,7.0,9.0,82,0.00,,,0.00,VWS V14.01,2013-01-15 06:46:00,
2013-01-15 00:51:00,16.1,11.6,30.39,SW,228,5.0,9.0,82,0.00,,,0.00,VWS V14.01,2013-01-15 06:51:00,
2013-01-15 00:56:00,16.0,11.5,30.39,SSW,201,5.0,9.0,82,0.00,,,0.00,VWS V14.01,2013-01-15 06:56:00,
2013-01-15 01:00:00,15.9,11.4,30.39,SW,215,5.0,9.0,82,0.00,,,0.00,VWS V14.01,2013-01-15 07:00:00,
2013-01-15 01:01:00,15.9,11.4,30.39,SSW,194,3.0,6.0,82,0.00,,,0.00,VWS V14.01,2013-01-15 07:01:00,
2013-01-15 01:06:00,15.8,11.3,30.38,SSW,210,1.0,6.0,82,0.00,,,0.00,VWS V14.01,2013-01-15 07:06:00,
2013-01-15 01:11:00,15.7,11.2,30.38,SSW,210,2.0,6.0,82,0.00,,,0.00,VWS V14.01,2013-01-15 07:11:00,
2013-01-15 01:16:00,15.6,11.1,30.38,SSW,201,2.0,6.0,82,0.00,,,0.00,VWS V14.01,2013-01-15 07:16:00,
2013-01-15 01:21:00,15.5,11.0,30.38,SSW,204,3.0,6.0,82,0.00,,,0.00,VWS V14.01,2013-01-15 07:21:00,
2013-01-15 01:26:00,15.4,10.9,30.38,SSW,207,4.0,7.0,82,0.00,,,0.00,VWS V14.01,2013-01-15 07:26:00,
2013-01-15 01:30:00,15.2,10.7,30.38,SW,221,3.0,7.0,82,0.00,,,0.00,VWS V14.01,2013-01-15 07:30:00,
2013-01-15 01:31:00,15.2,10.7,30.38,SW,214,3.0,6.0,82,0.00,,,0.00,VWS V14.01,2013-01-15 07:31:00,
2013-01-15 01:36:00,15.1,10.6,30.38,SW,218,2.0,7.0,82,0.00,,,0.00,VWS V14.01,2013-01-15 07:36:00,
2013-01-15 01:41:00,14.7,10.2,30.38,SSW,200,2.0,7.0,82,0.00,,,0.00,VWS V14.01,2013-01-15 07:41:00,
2013-01-15 01:46:00,14.5,10.3,30.38,SSW,200,1.0,7.0,83,0.00,,,0.00,VWS V14.01,2013-01-15 07:46:00,
2013-01-15 01:51:00,14.5,10.3,30.38,SSW,197,1.0,7.0,83,0.00,,,0.00,VWS V14.01,2013-01-15 07:51:00,
2013-01-15 01:56:00,14.4,10.2,30.38,WSW,245,2.0,7.0,83,0.00,,,0.00,VWS V14.01,2013-01-15 07:56:00,
2013-01-15 02:00:00,14.3,10.1,30.38,SW,236,2.0,7.0,83,0.00,,,0.00,VWS V14.01,2013-01-15 08:00:00,
2013-01-15 02:01:00,14.3,10.1,30.38,SSW,210,2.0,4.0,83,0.00,,,0.00,VWS V14.01,2013-01-15 08:01:00,
2013-01-15 02:06:00,14.6,10.4,30.38,SW,235,2.0,5.0,83,0.00,,,0.00,VWS V14.01,2013-01-15 08:06:00,
2013-01-15 02:11:00,14.5,10.3,30.39,SSW,207,0.0,5.0,83,0.00,,,0.00,VWS V14.01,2013-01-15 08:11:00,
2013-01-15 02:16:00,14.6,10.4,30.38,SW,215,6.0,7.0,83,0.00,,,0.00,VWS V14.01,2013-01-15 08:16:00,
2013-01-15 02:21:00,14.7,10.5,30.38,SSW,198,6.0,8.0,83,0.00,,,0.00,VWS V14.01,2013-01-15 08:21:00,
2013-01-15 02:26:00,14.8,10.6,30.38,SW,228,5.0,9.0,83,0.00,,,0.00,VWS V14.01,2013-01-15 08:26:00,
2013-01-15 02:30:00,15.0,10.8,30.38,SSW,200,4.0,9.0,83,0.00,,,0.00,VWS V14.01,2013-01-15 08:30:00,
2013-01-15 02:31:00,15.0,10.8,30.38,SW,221,5.0,5.0,83,0.00,,,0.00,VWS V14.01,2013-01-15 08:31:00,
2013-01-15 02:36:00,15.2,10.7,30.38,SW,235,7.0,9.0,82,0.00,,,0.00,VWS V14.01,2013-01-15 08:36:00,
2013-01-15 02:41:00,15.1,10.6,30.38,SW,231,3.0,9.0,82,0.00,,,0.00,VWS V14.01,2013-01-15 08:41:00,
2013-01-15 02:46:00,15.1,10.9,30.38,WSW,248,1.0,9.0,83,0.00,,,0.00,VWS V14.01,2013-01-15 08:46:00,
2013-01-15 02:51:00,15.1,10.6,30.38,SE,139,2.0,9.0,82,0.00,,,0.00,VWS V14.01,2013-01-15 08:51:00,
2013-01-15 02:56:00,15.1,10.9,30.38,SW,236,3.0,9.0,83,0.00,,,0.00,VWS V14.01,2013-01-15 08:56:00,
2013-01-15 03:00:00,15.1,10.9,30.38,SW,232,2.0,9.0,83,0.00,,,0.00,VWS V14.01,2013-01-15 09:00:00,
2013-01-15 03:01:00,15.1,10.9,30.38,SW,233,1.0,3.0,83,0.00,,,0.00,VWS V14.01,2013-01-15 09:01:00,
2013-01-15 03:06:00,15.0,10.8,30.38,WSW,245,5.0,6.0,83,0.00,,,0.00,VWS V14.01,2013-01-15 09:06:00,
2013-01-15 03:11:00,15.1,10.9,30.38,SSW,210,2.0,7.0,83,0.00,,,0.00,VWS V14.01,2013-01-15 09:11:00,
2013-01-15 03:16:00,15.0,10.8,30.37,SW,215,4.0,7.0,83,0.00,,,0.00,VWS V14.01,2013-01-15 09:16:00,
2013-01-15 03:21:00,15.0,10.5,30.37,SSW,208,4.0,7.0,82,0.00,,,0.00,VWS V14.01,2013-01-15 09:21:00,
2013-01-15 03:26:00,14.9,10.4,30.37,WSW,238,5.0,7.0,82,0.00,,,0.00,VWS V14.01,2013-01-15 09:26:00,
2013-01-15 03:30:00,14.8,10.3,30.37,SSW,211,3.0,7.0,82,0.00,,,0.00,VWS V14.01,2013-01-15 09:30:00,
2013-01-15 03:31:00,14.8,10.3,30.37,WSW,250,3.0,4.0,82,0.00,,,0.00,VWS V14.01,2013-01-15 09:31:00,
2013-01-15 03:36:00,14.6,10.1,30.37,SSW,208,5.0,7.0,82,0.00,,,0.00,VWS V14.01,2013-01-15 09:36:00,
2013-01-15 03:41:00,14.4,9.9,30.36,SW,215,4.0,8.0,82,0.00,,,0.00,VWS V14.01,2013-01-15 09:41:00,
2013-01-15 03:46:00,14.1,9.6,30.36,SW,226,7.0,8.0,82,0.00,,,0.00,VWS V14.01,2013-01-15 09:46:00,
2013-01-15 03:51:00,13.9,9.7,30.36,South,191,5.0,9.0,83,0.00,,,0.00,VWS V14.01,2013-01-15 09:51:00,
2013-01-15 03:56:00,14.0,9.8,30.36,SW,224,9.0,10.0,83,0.00,,,0.00,VWS V14.01,2013-01-15 09:56:00,
2013-01-15 04:00:00,14.0,9.8,30.36,South,191,8.0,10.0,83,0.00,,,0.00,VWS V14.01,2013-01-15 10:00:00,
2013-01-15 04:01:00,14.0,9.8,30.36,SSW,212,8.0,8.0,83,0.00,,,0.00,VWS V14.01,2013-01-15 10:01:00,
2013-01-15 04:06:00,14.0,9.8,30.36,SSW,195,3.0,9.0,83,0.00,,,0.00,VWS V14.01,2013-01-15 10:06:00,
2013-01-15 04:11:00,14.1,9.9,30.36,South,188,6.0,9.0,83,0.00,,,0.00,VWS V14.01,2013-01-15 10:11:00,
2013-01-15 04:16:00,14.1,9.9,30.36,SW,225,6.0,9.0,83,0.00,,,0.00,VWS V14.01,2013-01-15 10:16:00,
2013-01-15 04:21:00,14.0,9.8,30.36,SE,139,5.0,9.0,83,0.00,,,0.00,VWS V14.01,2013-01-15 10:21:00,
2013-01-15 04:26:00,14.1,9.9,30.36,South,188,5.0,9.0,83,0.00,,,0.00,VWS V14.01,2013-01-15 10:26:00,
2013-01-15 04:30:00,14.2,9.7,30.35,SW,217,4.0,9.0,82,0.00,,,0.00,VWS V14.01,2013-01-15 10:30:00,
2013-01-15 04:31:00,14.2,9.7,30.35,SW,226,3.0,5.0,82,0.00,,,0.00,VWS V14.01,2013-01-15 10:31:00,
2013-01-15 04:36:00,14.1,9.6,30.35,SSW,211,4.0,8.0,82,0.00,,,0.00,VWS V14.01,2013-01-15 10:36:00,
2013-01-15 04:41:00,14.0,9.8,30.35,WSW,243,6.0,8.0,83,0.00,,,0.00,VWS V14.01,2013-01-15 10:41:00,
2013-01-15 04:46:00,14.2,10.0,30.35,SSW,212,4.0,8.0,83,0.00,,,0.00,VWS V14.01,2013-01-15 10:46:00,
2013-01-15 04:51:00,14.4,10.2,30.35,SW,215,4.0,8.0,83,0.00,,,0.00,VWS V14.01,2013-01-15 10:51:00,
2013-01-15 04:56:00,14.4,9.9,30.34,WSW,242,4.0,8.0,82,0.00,,,0.00,VWS V14.01,2013-01-15 10:56:00,
2013-01-15 05:00:00,14.4,9.9,30.34,SW,221,2.0,8.0,82,0.00,,,0.00,VWS V14.01,2013-01-15 11:00:00,
2013-01-15 05:01:00,14.4,9.9,30.34,WSW,238,3.0,6.0,82,0.00,,,0.00,VWS V14.01,2013-01-15 11:01:00,
2013-01-15 05:06:00,14.4,9.9,30.34,SW,217,2.0,8.0,82,0.00,,,0.00,VWS V14.01,2013-01-15 11:06:00,
2013-01-15 05:11:00,14.3,9.8,30.34,SW,232,4.0,8.0,82,0.00,,,0.00,VWS V14.01,2013-01-15 11:11:00,
2013-01-15 05:16:00,14.4,10.2,30.34,WSW,249,3.0,8.0,83,0.00,,,0.00,VWS V14.01,2013-01-15 11:16:00,
2013-01-15 05:21:00,14.4,10.2,30.34,SW,236,3.0,8.0,83,0.00,,,0.00,VWS V14.01,2013-01-15 11:21:00,
2013-01-15 05:26:00,14.4,10.2,30.33,SW,215,3.0,8.0,83,0.00,,,0.00,VWS V14.01,2013-01-15 11:26:00,
2013-01-15 05:30:00,14.5,10.0,30.33,WSW,239,2.0,8.0,82,0.00,,,0.00,VWS V14.01,2013-01-15 11:30:00,
2013-01-15 05:31:00,14.5,10.0,30.33,SW,228,4.0,4.0,82,0.00,,,0.00,VWS V14.01,2013-01-15 11:31:00,
2013-01-15 05:36:00,14.5,10.3,30.33,WSW,258,4.0,5.0,83,0.00,,,0.00,VWS V14.01,2013-01-15 11:36:00,
2013-01-15 05:41:00,14.5,10.3,30.33,WSW,242,4.0,7.0,83,0.00,,,0.00,VWS V14.01,2013-01-15 11:41:00,
2013-01-15 05:46:00,14.6,10.4,30.33,SW,233,4.0,7.0,83,0.00,,,0.00,VWS V14.01,2013-01-15 11:46:00,
2013-01-15 05:51:00,14.8,10.6,30.34,WSW,238,3.0,7.0,83,0.00,,,0.00,VWS V14.01,2013-01-15 11:51:00,
2013-01-15 05:56:00,15.1,10.9,30.34,SW,226,1.0,7.0,83,0.00,,,0.00,VWS V14.01,2013-01-15 11:56:00,
2013-01-15 06:00:00,15.4,11.2,30.34,SE,143,4.0,8.0,83,0.00,,,0.00,VWS V14.01,2013-01-15 12:00:00,
2013-01-15 06:01:00,15.4,11.2,30.34,SSW,213,7.0,7.0,83,0.00,,,0.00,VWS V14.01,2013-01-15 12:01:00,
2013-01-15 06:06:00,15.6,11.1,30.33,WSW,248,5.0,8.0,82,0.00,,,0.00,VWS V14.01,2013-01-15 12:06:00,
2013-01-15 06:11:00,15.8,11.3,30.33,SW,222,4.0,8.0,82,0.00,,,0.00,VWS V14.01,2013-01-15 12:11:00,
2013-01-15 06:16:00,15.9,11.4,30.33,WSW,244,4.0,8.0,82,0.00,,,0.00,VWS V14.01,2013-01-15 12:16:00,
2013-01-15 06:21:00,16.0,11.5,30.33,SSW,208,3.0,8.0,82,0.00,,,0.00,VWS V14.01,2013-01-15 12:21:00,
2013-01-15 06:26:00,16.1,11.6,30.33,SSW,194,6.0,8.0,82,0.00,,,0.00,VWS V14.01,2013-01-15 12:26:00,
2013-01-15 06:30:00,16.1,11.6,30.33,SW,226,4.0,8.0,82,0.00,,,0.00,VWS V14.01,2013-01-15 12:30:00,
2013-01-15 06:31:00,16.1,11.6,30.33,WSW,256,3.0,7.0,82,0.00,,,0.00,VWS V14.01,2013-01-15 12:31:00,
2013-01-15 06:36:00,16.1,11.6,30.33,SW,214,2.0,7.0,82,0.00,,,0.00,VWS V14.01,2013-01-15 12:36:00,
2013-01-15 06:41:00,16.0,11.5,30.33,WSW,245,4.0,8.0,82,0.00,,,0.00,VWS V14.01,2013-01-15 12:41:00,
2013-01-15 06:46:00,16.2,11.4,30.33,SW,236,6.0,8.0,81,0.00,,,0.00,VWS V14.01,2013-01-15 12:46:00,
2013-01-15 06:51:00,16.2,11.1,30.33,SW,229,5.0,9.0,80,0.00,,,0.00,VWS V14.01,2013-01-15 12:51:00,
2013-01-15 06:56:00,16.0,10.9,30.33,WSW,248,3.0,9.0,80,0.00,,,0.00,VWS V14.01,2013-01-15 12:56:00,
2013-01-15 07:00:00,15.8,10.7,30.33,SW,229,4.0,9.0,80,0.00,,,0.00,VWS V14.01,2013-01-15 13:00:00,
2013-01-15 07:01:00,15.8,10.7,30.33,SSW,212,5.0,5.0,80,0.00,,,0.00,VWS V14.01,2013-01-15 13:01:00,
2013-01-15 07:06:00,15.5,10.7,30.33,WSW,238,3.0,7.0,81,0.00,,,0.00,VWS V14.01,2013-01-15 13:06:00,
2013-01-15 07:11:00,15.6,10.8,30.33,WSW,242,4.0,7.0,81,0.00,,,0.00,VWS V14.01,2013-01-15 13:11:00,
2013-01-15 07:16:00,15.5,10.7,30.33,SW,220,4.0,7.0,81,0.00,,,0.00,VWS V14.01,2013-01-15 13:16:00,
2013-01-15 07:21:00,15.5,10.7,30.33,SW,225,3.0,7.0,81,0.00,,,0.00,VWS V14.01,2013-01-15 13:21:00,
2013-01-15 07:26:00,15.6,10.8,30.33,West,260,4.0,7.0,81,0.00,,,0.00,VWS V14.01,2013-01-15 13:26:00,
2013-01-15 07:30:00,15.6,10.5,30.33,WSW,245,5.0,7.0,80,0.00,,,0.00,VWS V14.01,2013-01-15 13:30:00,
2013-01-15 07:31:00,15.6,10.5,30.33,WSW,252,6.0,6.0,80,0.00,,,0.00,VWS V14.01,2013-01-15 13:31:00,
2013-01-15 07:36:00,15.6,10.5,30.33,West,259,7.0,9.0,80,0.00,,,0.00,VWS V14.01,2013-01-15 13:36:00,
2013-01-15 07:41:00,15.6,10.5,30.33,West,274,4.0,9.0,80,0.00,,,0.00,VWS V14.01,2013-01-15 13:41:00,
2013-01-15 07:46:00,15.5,10.4,30.33,SW,233,7.0,9.0,80,0.00,,,0.00,VWS V14.01,2013-01-15 13:46:00,
2013-01-15 07:51:00,15.3,10.5,30.33,WSW,255,3.0,9.0,81,0.00,,,0.00,VWS V14.01,2013-01-15 13:51:00,
2013-01-15 07:56:00,15.2,10.4,30.33,SW,225,5.0,9.0,81,0.00,,,0.00,VWS V14.01,2013-01-15 13:56:00,
2013-01-15 08:00:00,14.8,10.0,30.33,WSW,255,5.0,9.0,81,0.00,,,0.00,VWS V14.01,2013-01-15 14:00:00,
2013-01-15 08:01:00,14.8,10.0,30.33,SW,233,5.0,5.0,81,0.00,,,0.00,VWS V14.01,2013-01-15 14:01:00,
2013-01-15 08:06:00,14.9,10.4,30.33,SW,235,5.0,7.0,82,0.00,,,0.00,VWS V14.01,2013-01-15 14:06:00,
2013-01-15 08:11:00,15.0,10.2,30.33,WSW,246,4.0,7.0,81,0.00,,,0.00,VWS V14.01,2013-01-15 14:11:00,
2013-01-15 08:16:00,15.2,10.4,30.33,SW,229,2.0,7.0,81,0.00,,,0.00,VWS V14.01,2013-01-15 14:16:00,
2013-01-15 08:21:00,15.5,10.7,30.33,WSW,248,4.0,7.0,81,0.00,,,0.00,VWS V14.01,2013-01-15 14:21:00,
2013-01-15 08:26:00,15.6,10.8,30.33,South,191,4.0,7.0,81,0.00,,,0.00,VWS V14.01,2013-01-15 14:26:00,
2013-01-15 08:30:00,15.7,10.9,30.33,West,267,5.0,7.0,81,0.00,,,0.00,VWS V14.01,2013-01-15 14:30:00,
2013-01-15 08:31:00,15.6,10.8,30.33,WSW,238,3.0,5.0,81,0.00,,,0.00,VWS V14.01,2013-01-15 14:31:00,
2013-01-15 08:36:00,15.7,10.9,30.33,SW,225,3.0,5.0,81,0.00,,,0.00,VWS V14.01,2013-01-15 14:36:00,
2013-01-15 08:41:00,15.8,11.3,30.33,South,184,2.0,5.0,82,0.00,,,0.00,VWS V14.01,2013-01-15 14:41:00,
2013-01-15 08:46:00,15.9,11.4,30.34,SW,217,4.0,7.0,82,0.00,,,0.00,VWS V14.01,2013-01-15 14:46:00,
2013-01-15 08:51:00,16.2,11.7,30.34,WSW,249,3.0,7.0,82,0.00,,,0.00,VWS V14.01,2013-01-15 14:51:00,
2013-01-15 08:56:00,16.5,12.0,30.34,SW,221,5.0,7.0,82,0.00,,,0.00,VWS V14.01,2013-01-15 14:56:00,
2013-01-15 09:00:00,16.7,11.9,30.34,SW,225,6.0,7.0,81,0.00,,,0.00,VWS V14.01,2013-01-15 15:00:00,
2013-01-15 09:01:00,16.7,11.9,30.34,SSW,207,5.0,8.0,81,0.00,,,0.00,VWS V14.01,2013-01-15 15:01:00,
2013-01-15 09:06:00,16.7,11.9,30.34,SW,236,3.0,9.0,81,0.00,,,0.00,VWS V14.01,2013-01-15 15:06:00,
2013-01-15 09:11:00,16.8,12.0,30.34,SW,218,6.0,9.0,81,0.00,,,0.00,VWS V14.01,2013-01-15 15:11:00,
2013-01-15 09:16:00,16.8,12.0,30.34,SW,222,6.0,9.0,81,0.00,,,0.00,VWS V14.01,2013-01-15 15:16:00,
2013-01-15 09:21:00,17.0,12.5,30.34,SW,223,5.0,9.0,82,0.00,,,0.00,VWS V14.01,2013-01-15 15:21:00,
2013-01-15 09:26:00,17.4,12.9,30.34,SW,214,8.0,9.0,82,0.00,,,0.00,VWS V14.01,2013-01-15 15:26:00,
2013-01-15 09:30:00,17.7,12.9,30.34,SSW,208,5.0,9.0,81,0.00,,,0.00,VWS V14.01,2013-01-15 15:30:00,
2013-01-15 09:31:00,17.7,12.9,30.34,SE,136,3.0,7.0,81,0.00,,,0.00,VWS V14.01,2013-01-15 15:31:00,
2013-01-15 09:36:00,17.9,12.8,30.34,SSW,200,6.0,12.0,80,0.00,,,0.00,VWS V14.01,2013-01-15 15:36:00,
2013-01-15 09:41:00,18.2,13.1,30.33,SW,229,7.0,12.0,80,0.00,,,0.00,VWS V14.01,2013-01-15 15:41:00,
2013-01-15 09:46:00,18.7,13.9,30.33,SW,233,6.0,12.0,81,0.00,,,0.00,VWS V14.01,2013-01-15 15:46:00,
2013-01-15 09:51:00,19.1,14.2,30.33,South,188,5.0,12.0,81,0.00,,,0.00,VWS V14.01,2013-01-15 15:51:00,
2013-01-15 09:56:00,19.5,14.6,30.33,SW,236,5.0,12.0,81,0.00,,,0.00,VWS V14.01,2013-01-15 15:56:00,
2013-01-15 10:00:00,20.0,14.8,30.33,SSW,201,5.0,12.0,80,0.00,,,0.00,VWS V14.01,2013-01-15 16:00:00,
2013-01-15 10:01:00,20.0,15.1,30.33,SW,217,5.0,5.0,81,0.00,,,0.00,VWS V14.01,2013-01-15 16:01:00,
2013-01-15 10:06:00,20.4,15.2,30.33,SSW,204,8.0,11.0,80,0.00,,,0.00,VWS V14.01,2013-01-15 16:06:00,
2013-01-15 10:11:00,20.8,15.6,30.33,WSW,245,9.0,13.0,80,0.00,,,0.00,VWS V14.01,2013-01-15 16:11:00,
2013-01-15 10:16:00,21.2,15.7,30.33,SW,226,7.0,13.0,79,0.00,,,0.00,VWS V14.01,2013-01-15 16:16:00,
2013-01-15 10:21:00,21.5,16.0,30.33,SW,235,7.0,13.0,79,0.00,,,0.00,VWS V14.01,2013-01-15 16:21:00,
2013-01-15 10:26:00,21.9,15.8,30.33,WSW,257,5.0,13.0,77,0.00,,,0.00,VWS V14.01,2013-01-15 16:26:00,
2013-01-15 10:30:00,22.2,16.1,30.33,SW,222,4.0,13.0,77,0.00,,,0.00,VWS V14.01,2013-01-15 16:30:00,
2013-01-15 10:31:00,22.3,16.2,30.33,SSW,207,11.0,13.0,77,0.00,,,0.00,VWS V14.01,2013-01-15 16:31:00,
2013-01-15 10:36:00,22.7,16.6,30.33,WSW,239,8.0,14.0,77,0.00,,,0.00,VWS V14.01,2013-01-15 16:36:00,
2013-01-15 10:41:00,23.0,16.3,30.32,SW,225,6.0,14.0,75,0.00,,,0.00,VWS V14.01,2013-01-15 16:41:00,
2013-01-15 10:46:00,23.3,16.2,30.32,SW,236,6.0,14.0,74,0.00,,,0.00,VWS V14.01,2013-01-15 16:46:00,
2013-01-15 10:51:00,23.8,17.0,30.32,SW,217,5.0,14.0,75,0.00,,,0.00,VWS V14.01,2013-01-15 16:51:00,
2013-01-15 10:56:00,24.2,16.8,30.32,WSW,251,8.0,14.0,73,0.00,,,0.00,VWS V14.01,2013-01-15 16:56:00,
2013-01-15 11:00:00,24.5,16.8,30.32,West,264,9.0,14.0,72,0.00,,,0.00,VWS V14.01,2013-01-15 17:00:00,
2013-01-15 11:01:00,24.5,16.8,30.31,West,261,10.0,12.0,72,0.00,,,0.00,VWS V14.01,2013-01-15 17:01:00,
2013-01-15 11:06:00,24.8,17.1,30.31,SW,231,7.0,13.0,72,0.00,,,0.00,VWS V14.01,2013-01-15 17:06:00,
2013-01-15 11:14:00,25.3,16.9,30.31,WSW,253,9.0,9.0,70,0.00,,,0.00,VWS V14.01,2013-01-15 17:14:00,
2013-01-15 11:19:00,25.5,17.1,30.31,SSW,210,8.0,13.0,70,0.00,,,0.00,VWS V14.01,2013-01-15 17:19:00,
2013-01-15 11:24:00,25.8,17.7,30.30,WSW,252,11.0,13.0,71,0.00,,,0.00,VWS V14.01,2013-01-15 17:24:00,
2013-01-15 11:29:00,26.2,17.4,30.30,SSW,211,7.0,13.0,69,0.00,,,0.00,VWS V14.01,2013-01-15 17:29:00,
2013-01-15 11:30:00,26.4,18.0,30.30,WSW,246,8.0,13.0,70,0.00,,,0.00,VWS V14.01,2013-01-15 17:30:00,
2013-01-15 11:34:00,26.5,17.7,30.30,WSW,245,10.0,12.0,69,0.00,,,0.00,VWS V14.01,2013-01-15 17:34:00,
2013-01-15 11:39:00,26.7,17.2,30.29,SW,232,9.0,13.0,67,0.00,,,0.00,VWS V14.01,2013-01-15 17:39:00,
2013-01-15 11:44:00,26.9,18.1,30.29,SW,229,11.0,14.0,69,0.00,,,0.00,VWS V14.01,2013-01-15 17:44:00,
2013-01-15 11:49:00,27.1,17.6,30.28,SW,236,7.0,15.0,67,0.00,,,0.00,VWS V14.01,2013-01-15 17:49:00,
2013-01-15 11:54:00,27.3,18.5,30.28,SW,225,10.0,15.0,69,0.00,,,0.00,VWS V14.01,2013-01-15 17:54:00,
2013-01-15 11:59:00,27.5,18.3,30.28,WSW,246,10.0,15.0,68,0.00,,,0.00,VWS V14.01,2013-01-15 17:59:00,
2013-01-15 12:00:00,27.7,18.2,30.28,SW,224,7.0,15.0,67,0.00,,,0.00,VWS V14.01,2013-01-15 18:00:00,
2013-01-15 12:04:00,27.7,18.5,30.28,WSW,246,9.0,14.0,68,0.00,,,0.00,VWS V14.01,2013-01-15 18:04:00,
2013-01-15 12:09:00,27.8,19.0,30.27,SW,232,10.0,15.0,69,0.00,,,0.00,VWS V14.01,2013-01-15 18:09:00,
2013-01-15 12:14:00,28.0,19.2,30.27,West,259,8.0,15.0,69,0.00,,,0.00,VWS V14.01,2013-01-15 18:14:00,
2013-01-15 12:19:00,28.2,19.7,30.27,WSW,246,11.0,15.0,70,0.00,,,0.00,VWS V14.01,2013-01-15 18:19:00,
2013-01-15 12:24:00,28.4,19.5,30.27,SW,219,10.0,15.0,69,0.00,,,0.00,VWS V14.01,2013-01-15 18:24:00,
2013-01-15 12:29:00,28.4,19.9,30.26,WSW,240,11.0,15.0,70,0.00,,,0.00,VWS V14.01,2013-01-15 18:29:00,
2013-01-15 12:30:00,28.5,20.0,30.26,SSW,206,7.0,15.0,70,0.00,,,0.00,VWS V14.01,2013-01-15 18:30:00,
2013-01-15 12:34:00,28.8,20.3,30.26,SW,233,7.0,14.0,70,0.00,,,0.00,VWS V14.01,2013-01-15 18:34:00,
2013-01-15 12:39:00,28.9,20.0,30.26,SSW,203,9.0,14.0,69,0.00,,,0.00,VWS V14.01,2013-01-15 18:39:00,
2013-01-15 12:44:00,29.0,19.8,30.25,SW,226,11.0,15.0,68,0.00,,,0.00,VWS V14.01,2013-01-15 18:44:00,
2013-01-15 12:49:00,29.2,20.0,30.25,SSW,194,5.0,16.0,68,0.00,,,0.00,VWS V14.01,2013-01-15 18:49:00,
2013-01-15 12:54:00,29.3,19.4,30.25,WSW,239,10.0,16.0,66,0.00,,,0.00,VWS V14.01,2013-01-15 18:54:00,
2013-01-15 12:59:00,29.5,19.9,30.25,SW,221,10.0,16.0,67,0.00,,,0.00,VWS V14.01,2013-01-15 18:59:00,
2013-01-15 13:00:00,29.5,19.6,30.25,WSW,245,13.0,16.0,66,0.00,,,0.00,VWS V14.01,2013-01-15 19:00:00,
2013-01-15 13:04:00,29.4,19.5,30.24,WSW,239,9.0,16.0,66,0.00,,,0.00,VWS V14.01,2013-01-15 19:04:00,
2013-01-15 13:09:00,29.6,19.6,30.24,SW,226,9.0,16.0,66,0.00,,,0.00,VWS V14.01,2013-01-15 19:09:00,
2013-01-15 13:14:00,29.8,19.5,30.24,WSW,246,11.0,16.0,65,0.00,,,0.00,VWS V14.01,2013-01-15 19:14:00,
2013-01-15 13:19:00,29.7,19.4,30.23,WSW,243,13.0,18.0,65,0.00,,,0.00,VWS V14.01,2013-01-15 19:19:00,
2013-01-15 13:24:00,29.8,19.5,30.23,SW,233,8.0,18.0,65,0.00,,,0.00,VWS V14.01,2013-01-15 19:24:00,
2013-01-15 13:29:00,29.8,19.5,30.23,SW,229,10.0,18.0,65,0.00,,,0.00,VWS V14.01,2013-01-15 19:29:00,
2013-01-15 13:30:00,29.8,19.5,30.23,WSW,238,10.0,18.0,65,0.00,,,0.00,VWS V14.01,2013-01-15 19:30:00,
2013-01-15 13:34:00,30.0,19.7,30.23,WSW,243,10.0,13.0,65,0.00,,,0.00,VWS V14.01,2013-01-15 19:34:00,
2013-01-15 13:39:00,30.1,19.8,30.22,WSW,238,12.0,15.0,65,0.00,,,0.00,VWS V14.01,2013-01-15 19:39:00,
2013-01-15 13:44:00,30.1,19.8,30.22,SW,225,8.0,15.0,65,0.00,,,0.00,VWS V14.01,2013-01-15 19:44:00,
2013-01-15 13:49:00,30.5,20.1,30.22,WSW,256,5.0,15.0,65,0.00,,,0.00,VWS V14.01,2013-01-15 19:49:00,
2013-01-15 13:54:00,30.5,19.8,30.22,SW,234,10.0,15.0,64,0.00,,,0.00,VWS V14.01,2013-01-15 19:54:00,
2013-01-15 13:59:00,30.5,19.8,30.22,West,260,7.0,15.0,64,0.00,,,0.00,VWS V14.01,2013-01-15 19:59:00,
2013-01-15 14:00:00,30.4,19.7,30.22,SSW,205,8.0,16.0,64,0.00,,,0.00,VWS V14.01,2013-01-15 20:00:00,
2013-01-15 14:03:00,30.6,20.2,30.22,South,191,5.0,16.0,65,0.00,,,0.00,VWS V14.01,2013-01-15 20:03:00,
2013-01-15 14:08:00,30.6,19.5,30.22,SSW,201,5.0,16.0,63,0.00,,,0.00,VWS V14.01,2013-01-15 20:08:00,
2013-01-15 14:13:00,30.6,19.5,30.22,WSW,242,5.0,16.0,63,0.00,,,0.00,VWS V14.01,2013-01-15 20:13:00,
2013-01-15 14:18:00,30.7,19.6,30.22,SW,232,6.0,16.0,63,0.00,,,0.00,VWS V14.01,2013-01-15 20:18:00,
2013-01-15 14:23:00,30.7,19.2,30.22,SW,229,6.0,16.0,62,0.00,,,0.00,VWS V14.01,2013-01-15 20:23:00,
2013-01-15 14:28:00,30.9,19.4,30.21,SSW,205,11.0,16.0,62,0.00,,,0.00,VWS V14.01,2013-01-15 20:28:00,
2013-01-15 14:30:00,31.0,20.3,30.21,SW,224,10.0,16.0,64,0.00,,,0.00,VWS V14.01,2013-01-15 20:30:00,
2013-01-15 14:33:00,31.0,20.3,30.21,SW,226,14.0,16.0,64,0.00,,,0.00,VWS V14.01,2013-01-15 20:33:00,
2013-01-15 14:38:00,31.1,20.0,30.21,WSW,243,11.0,16.0,63,0.00,,,0.00,VWS V14.01,2013-01-15 20:38:00,
2013-01-15 14:43:00,31.0,19.9,30.21,WSW,242,11.0,17.0,63,0.00,,,0.00,VWS V14.01,2013-01-15 20:43:00,
2013-01-15 14:48:00,31.1,20.0,30.21,SW,218,8.0,17.0,63,0.00,,,0.00,VWS V14.01,2013-01-15 20:48:00,
2013-01-15 14:53:00,31.4,21.0,30.21,South,176,8.0,17.0,65,0.00,,,0.00,VWS V14.01,2013-01-15 20:53:00,
2013-01-15 14:58:00,31.3,20.2,30.21,SW,222,9.0,17.0,63,0.00,,,0.00,VWS V14.01,2013-01-15 20:58:00,
2013-01-15 15:00:00,31.3,20.2,30.21,SSW,195,8.0,17.0,63,0.00,,,0.00,VWS V14.01,2013-01-15 21:00:00,
2013-01-15 15:03:00,31.3,20.5,30.20,SSW,193,10.0,15.0,64,0.00,,,0.00,VWS V14.01,2013-01-15 21:03:00,
2013-01-15 15:08:00,31.5,20.7,30.20,SW,229,11.0,15.0,64,0.00,,,0.00,VWS V14.01,2013-01-15 21:08:00,
2013-01-15 15:13:00,31.3,20.5,30.20,SW,217,9.0,15.0,64,0.00,,,0.00,VWS V14.01,2013-01-15 21:13:00,
2013-01-15 15:18:00,31.2,20.1,30.20,SW,216,12.0,18.0,63,0.00,,,0.00,VWS V14.01,2013-01-15 21:18:00,
2013-01-15 15:24:00,31.2,20.5,30.20,SSW,208,12.0,18.0,64,0.00,,,0.00,VWS V14.01,2013-01-15 21:24:00,
2013-01-15 15:28:00,31.3,20.2,30.20,SSW,210,13.0,18.0,63,0.00,,,0.00,VWS V14.01,2013-01-15 21:28:00,
2013-01-15 15:30:00,31.2,20.5,30.20,SSW,194,8.0,18.0,64,0.00,,,0.00,VWS V14.01,2013-01-15 21:30:00,
2013-01-15 15:34:00,31.3,21.3,30.20,SSE,158,2.0,14.0,66,0.00,,,0.00,VWS V14.01,2013-01-15 21:34:00,
2013-01-15 15:39:00,31.3,20.9,30.20,SW,218,11.0,18.0,65,0.00,,,0.00,VWS V14.01,2013-01-15 21:39:00,
2013-01-15 15:44:00,31.2,20.8,30.19,SSW,201,5.0,18.0,65,0.00,,,0.00,VWS V14.01,2013-01-15 21:44:00,
2013-01-15 15:49:00,31.2,20.8,30.19,South,187,13.0,18.0,65,0.00,,,0.00,VWS V14.01,2013-01-15 21:49:00,
2013-01-15 16:00:00,30.9,20.9,30.19,South,176,5.0,18.0,66,0.00,,,0.00,VWS V14.01,2013-01-15 22:00:00,
2013-01-15 16:30:00,30.2,19.5,30.17,SSW,204,8.0,19.0,64,0.00,,,0.00,VWS V14.01,2013-01-15 22:30:00,
2013-01-15 17:00:00,28.5,19.0,30.17,SW,226,11.0,16.0,67,0.00,,,0.00,VWS V14.01,2013-01-15 23:00:00,
2013-01-15 17:30:00,26.9,18.8,30.17,SSW,198,5.0,14.0,71,0.00,,,0.00,VWS V14.01,2013-01-15 23:30:00,
2013-01-15 18:00:00,25.7,18.3,30.17,SSW,200,10.0,14.0,73,0.00,,,0.00,VWS V14.01,2013-01-16 00:00:00,
2013-01-15 18:30:00,24.5,17.7,30.15,SSW,204,6.0,14.0,75,0.00,,,0.00,VWS V14.01,2013-01-16 00:30:00,
2013-01-15 19:00:00,23.9,17.5,30.15,South,175,7.0,13.0,76,0.00,,,0.00,VWS V14.01,2013-01-16 01:00:00,
2013-01-15 19:13:00,23.5,17.1,30.14,SSW,203,10.0,12.0,76,0.00,,,0.00,VWS V14.01,2013-01-16 01:13:00,
2013-01-15 19:18:00,23.5,17.1,30.14,SSW,211,10.0,12.0,76,0.00,,,0.00,VWS V14.01,2013-01-16 01:18:00,
2013-01-15 19:23:00,23.4,17.0,30.14,SSE,158,7.0,13.0,76,0.00,,,0.00,VWS V14.01,2013-01-16 01:23:00,
2013-01-15 19:28:00,23.2,16.8,30.14,SSW,211,9.0,13.0,76,0.00,,,0.00,VWS V14.01,2013-01-16 01:28:00,
2013-01-15 19:30:00,23.1,17.0,30.13,SSW,207,9.0,13.0,77,0.00,,SKC,0.00,VWS V14.01,2013-01-16 01:30:00,
2013-01-15 19:33:00,23.1,17.0,30.13,South,184,8.0,13.0,77,0.00,,,0.00,VWS V14.01,2013-01-16 01:33:00,
2013-01-15 19:38:00,23.0,16.9,30.12,SW,215,9.0,16.0,77,0.00,,,0.00,VWS V14.01,2013-01-16 01:38:00,
2013-01-15 19:43:00,23.0,16.9,30.12,SSW,201,9.0,16.0,77,0.00,,,0.00,VWS V14.01,2013-01-16 01:43:00,
2013-01-15 19:48:00,22.9,16.8,30.12,SSW,200,11.0,16.0,77,0.00,,,0.00,VWS V14.01,2013-01-16 01:48:00,
2013-01-15 19:53:00,23.0,16.9,30.12,SSW,212,8.0,16.0,77,0.00,,,0.00,VWS V14.01,2013-01-16 01:53:00,
2013-01-15 19:58:00,22.9,16.8,30.11,SW,215,9.0,16.0,77,0.00,,,0.00,VWS V14.01,2013-01-16 01:58:00,
2013-01-15 20:00:00,22.9,16.8,30.11,SSW,195,12.0,16.0,77,0.00,,SKC,0.00,VWS V14.01,2013-01-16 02:00:00,
2013-01-15 20:03:00,22.8,16.7,30.11,SW,217,12.0,16.0,77,0.00,,,0.00,VWS V14.01,2013-01-16 02:03:00,
2013-01-15 20:08:00,22.9,16.8,30.10,SW,218,10.0,16.0,77,0.00,,,0.00,VWS V14.01,2013-01-16 02:08:00,
2013-01-15 20:13:00,22.9,17.1,30.10,South,188,8.0,16.0,78,0.00,,,0.00,VWS V14.01,2013-01-16 02:13:00,
2013-01-15 20:18:00,23.0,16.9,30.10,SW,215,4.0,16.0,77,0.00,,,0.00,VWS V14.01,2013-01-16 02:18:00,
2013-01-15 20:23:00,22.8,16.7,30.10,SSW,205,10.0,16.0,77,0.00,,,0.00,VWS V14.01,2013-01-16 02:23:00,
2013-01-15 20:28:00,22.6,16.8,30.10,SW,221,9.0,16.0,78,0.00,,,0.00,VWS V14.01,2013-01-16 02:28:00,
2013-01-15 20:30:00,22.6,16.8,30.10,SW,219,6.0,16.0,78,0.00,,SKC,0.00,VWS V14.01,2013-01-16 02:30:00,
2013-01-15 20:33:00,22.7,16.9,30.10,SSW,197,5.0,13.0,78,0.00,,,0.00,VWS V14.01,2013-01-16 02:33:00,
2013-01-15 20:38:00,22.8,16.7,30.10,SW,228,10.0,15.0,77,0.00,,,0.00,VWS V14.01,2013-01-16 02:38:00,
2013-01-15 20:43:00,22.9,16.8,30.10,SW,226,12.0,15.0,77,0.00,,,0.00,VWS V14.01,2013-01-16 02:43:00,
2013-01-15 20:48:00,22.9,16.8,30.10,South,174,7.0,15.0,77,0.00,,,0.00,VWS V14.01,2013-01-16 02:48:00,
2013-01-15 20:53:00,22.8,16.7,30.10,SSW,211,8.0,15.0,77,0.00,,,0.00,VWS V14.01,2013-01-16 02:53:00,
2013-01-15 20:58:00,23.0,16.6,30.09,SSW,210,12.0,15.0,76,0.00,,,0.00,VWS V14.01,2013-01-16 02:58:00,
2013-01-15 21:00:00,23.1,16.7,30.09,SSW,197,9.0,16.0,76,0.00,,SKC,0.00,VWS V14.01,2013-01-16 03:00:00,
2013-01-15 21:03:00,23.1,16.4,30.09,South,178,9.0,16.0,75,0.00,,,0.00,VWS V14.01,2013-01-16 03:03:00,
2013-01-15 21:08:00,23.1,16.4,30.09,SSW,212,8.0,16.0,75,0.00,,,0.00,VWS V14.01,2013-01-16 03:08:00,
2013-01-15 21:13:00,23.0,16.3,30.08,SW,215,6.0,16.0,75,0.00,,,0.00,VWS V14.01,2013-01-16 03:13:00,
2013-01-15 21:18:00,22.9,16.2,30.08,SW,231,12.0,16.0,75,0.00,,,0.00,VWS V14.01,2013-01-16 03:18:00,
2013-01-15 21:23:00,22.8,16.1,30.07,SSW,193,8.0,16.0,75,0.00,,,0.00,VWS V14.01,2013-01-16 03:23:00,
2013-01-15 21:28:00,22.8,16.1,30.07,South,188,8.0,16.0,75,0.00,,,0.00,VWS V14.01,2013-01-16 03:28:00,
2013-01-15 21:30:00,22.8,16.1,30.07,SW,215,10.0,17.0,75,0.00,,SKC,0.00,VWS V14.01,2013-01-16 03:30:00,
2013-01-15 21:33:00,22.8,16.1,30.06,SW,236,9.0,17.0,75,0.00,,,0.00,VWS V14.01,2013-01-16 03:33:00,
2013-01-15 21:38:00,22.8,16.1,30.06,SSW,193,15.0,17.0,75,0.00,,,0.00,VWS V14.01,2013-01-16 03:38:00,
2013-01-15 21:43:00,22.8,16.1,30.05,SSE,165,9.0,17.0,75,0.00,,,0.00,VWS V14.01,2013-01-16 03:43:00,
2013-01-15 21:48:00,22.8,16.1,30.05,SSE,163,11.0,18.0,75,0.00,,,0.00,VWS V14.01,2013-01-16 03:48:00,
2013-01-15 21:53:00,22.5,15.8,30.05,SSW,198,16.0,18.0,75,0.00,,,0.00,VWS V14.01,2013-01-16 03:53:00,
2013-01-15 21:58:00,22.4,15.7,30.05,SSW,205,10.0,18.0,75,0.00,,,0.00,VWS V14.01,2013-01-16 03:58:00,
2013-01-15 22:00:00,22.3,15.9,30.05,SSW,200,9.0,18.0,76,0.00,,SKC,0.00,VWS V14.01,2013-01-16 04:00:00,
2013-01-15 22:03:00,22.2,15.8,30.04,SSW,211,12.0,15.0,76,0.00,,,0.00,VWS V14.01,2013-01-16 04:03:00,
2013-01-15 22:08:00,22.3,15.9,30.04,SSW,212,9.0,15.0,76,0.00,,,0.00,VWS V14.01,2013-01-16 04:08:00,
2013-01-15 22:13:00,22.4,16.0,30.04,WSW,248,8.0,15.0,76,0.00,,,0.00,VWS V14.01,2013-01-16 04:13:00,
2013-01-15 22:18:00,22.3,15.6,30.04,SW,223,8.0,15.0,75,0.00,,,0.00,VWS V14.01,2013-01-16 04:18:00,
2013-01-15 22:23:00,22.2,15.8,30.04,SSW,208,8.0,15.0,76,0.00,,,0.00,VWS V14.01,2013-01-16 04:23:00,
2013-01-15 22:28:00,22.2,15.8,30.04,SSW,198,9.0,17.0,76,0.00,,,0.00,VWS V14.01,2013-01-16 04:28:00,
2013-01-15 22:30:00,22.2,15.8,30.03,SW,224,14.0,17.0,76,0.00,,SKC,0.00,VWS V14.01,2013-01-16 04:30:00,
2013-01-15 22:33:00,22.1,15.7,30.03,SSW,212,5.0,14.0,76,0.00,,,0.00,VWS V14.01,2013-01-16 04:33:00,
2013-01-15 22:38:00,22.0,15.6,30.03,South,189,9.0,14.0,76,0.00,,,0.00,VWS V14.01,2013-01-16 04:38:00,
2013-01-15 22:43:00,21.9,15.5,30.02,SW,233,13.0,14.0,76,0.00,,,0.00,VWS V14.01,2013-01-16 04:43:00,
2013-01-15 22:48:00,21.7,15.3,30.02,SW,214,9.0,17.0,76,0.00,,,0.00,VWS V14.01,2013-01-16 04:48:00,
2013-01-15 22:53:00,21.6,15.5,30.02,SW,232,10.0,17.0,77,0.00,,,0.00,VWS V14.01,2013-01-16 04:53:00,
2013-01-15 22:59:00,21.6,15.5,30.02,SSW,200,7.0,17.0,77,0.00,,,0.00,VWS V14.01,2013-01-16 04:59:00,
2013-01-15 23:00:00,21.6,15.5,30.02,South,177,6.0,17.0,77,0.00,,,0.00,VWS V14.01,2013-01-16 05:00:00,
2013-01-15 23:01:00,21.6,15.5,30.02,WSW,238,9.0,9.0,77,0.00,,,0.00,VWS V14.01,2013-01-16 05:01:00,
2013-01-15 23:02:00,21.6,15.5,30.02,SSW,203,6.0,11.0,77,0.00,,,0.00,VWS V14.01,2013-01-16 05:02:00,
2013-01-15 23:07:00,21.6,15.5,30.01,SW,221,15.0,19.0,77,0.00,,,0.00,VWS V14.01,2013-01-16 05:07:00,
2013-01-15 23:12:00,21.7,15.3,30.01,SSW,212,6.0,19.0,76,0.00,,,0.00,VWS V14.01,2013-01-16 05:12:00,
2013-01-15 23:17:00,21.6,15.2,30.01,WSW,243,9.0,19.0,76,0.00,,,0.00,VWS V14.01,2013-01-16 05:17:00,
2013-01-15 23:22:00,21.7,15.3,30.00,SW,221,7.0,19.0,76,0.00,,,0.00,VWS V14.01,2013-01-16 05:22:00,
2013-01-15 23:27:00,21.7,15.3,30.00,SW,217,9.0,19.0,76,0.00,,,0.00,VWS V14.01,2013-01-16 05:27:00,
2013-01-15 23:30:00,21.7,15.3,30.00,South,191,8.0,19.0,76,0.00,,SKC,0.00,VWS V14.01,2013-01-16 05:30:00,
2013-01-15 23:32:00,21.7,15.3,30.00,SSW,203,11.0,13.0,76,0.00,,,0.00,VWS V14.01,2013-01-16 05:32:00,
2013-01-15 23:37:00,21.7,15.3,30.00,SW,229,10.0,13.0,76,0.00,,,0.00,VWS V14.01,2013-01-16 05:37:00,
2013-01-15 23:42:00,21.7,15.3,30.00,SSW,200,8.0,16.0,76,0.00,,,0.00,VWS V14.01,2013-01-16 05:42:00,
2013-01-15 23:47:00,21.6,15.2,30.00,SW,236,10.0,16.0,76,0.00,,,0.00,VWS V14.01,2013-01-16 05:47:00,
2013-01-15 23:52:00,21.5,15.4,30.00,SW,223,7.0,16.0,77,0.00,,,0.00,VWS V14.01,2013-01-16 05:52:00,
2013-01-15 23:57:00,21.5,15.4,30.00,SSW,211,7.0,16.0,77,0.00,,,0.00,VWS V14.01,2013-01-16 05:57:00,